Time,TemperatureF,DewpointF,PressureIn,WindDirection,WindDirectionDegrees,WindSpeedMPH,WindSpeedGustMPH,Humidity,HourlyPrecipIn,Conditions,Clouds,dailyrainin,SolarRadiationWatts/m^2,SoftwareType,DateUTC
2013-03-07 00:00:00,35.0,30.3,29.89,NNW,338,8.0,35.0,83,0.00,,,0.00,0000,Weather View 32 v70,2013-03-07 05:00:00,
2013-03-07 00:05:00,34.8,30.5,29.89,ENE,68,4.0,35.0,84,0.00,,,0.00,0000,Weather View 32 v70,2013-03-07 05:05:00,
2013-03-07 00:10:00,34.7,30.4,29.89,NW,315,10.0,35.0,84,0.00,,,0.00,0008,Weather View 32 v70,2013-03-07 05:10:00,
2013-03-07 00:20:00,34.6,30.6,29.89,NW,315,10.0,35.0,85,0.00,,,0.00,0000,Weather View 32 v70,2013-03-07 05:20:00,
2013-03-07 00:25:00,34.5,30.5,29.89,North,0,6.0,35.0,85,0.00,,,0.00,0000,Weather View 32 v70,2013-03-07 05:25:00,
2013-03-07 00:30:00,34.4,30.6,29.89,NNE,23,5.0,35.0,86,0.00,,,0.00,0000,Weather View 32 v70,2013-03-07 05:30:00,
2013-03-07 00:35:00,34.4,30.6,29.89,ENE,68,5.0,35.0,86,0.00,,,0.00,0000,Weather View 32 v70,2013-03-07 05:35:00,
2013-03-07 00:45:00,34.2,30.4,29.88,NNW,338,16.0,35.0,86,0.01,,,0.01,0000,Weather View 32 v70,2013-03-07 05:45:00,
2013-03-07 00:50:00,34.2,30.7,29.88,North,0,15.0,22.0,87,0.01,,,0.01,0000,Weather View 32 v70,2013-03-07 05:50:00,
2013-03-07 01:00:00,34.3,30.5,29.88,NE,45,5.0,22.0,86,0.01,,,0.01,0000,Weather View 32 v70,2013-03-07 06:00:00,
2013-03-07 01:05:00,34.2,30.4,29.86,North,0,7.0,22.0,86,0.01,,,0.01,0016,Weather View 32 v70,2013-03-07 06:05:00,
2013-03-07 01:15:00,33.9,30.5,29.88,NNE,23,5.0,21.0,87,0.01,,,0.01,0000,Weather View 32 v70,2013-03-07 06:15:00,
2013-03-07 01:25:00,33.9,30.5,29.88,NNW,338,3.0,21.0,87,0.01,,,0.01,0000,Weather View 32 v70,2013-03-07 06:25:00,
2013-03-07 01:35:00,34.1,30.6,29.87,NE,45,5.0,21.0,87,0.01,,,0.01,0000,Weather View 32 v70,2013-03-07 06:35:00,
2013-03-07 01:45:00,34.2,30.7,29.87,NNW,338,11.0,24.0,87,0.00,,,0.01,0008,Weather View 32 v70,2013-03-07 06:45:00,
2013-03-07 01:55:00,33.9,30.5,29.86,North,0,3.0,24.0,87,0.00,,,0.01,0000,Weather View 32 v70,2013-03-07 06:55:00,
2013-03-07 02:00:00,33.9,30.5,29.86,NNW,338,5.0,24.0,87,0.00,,,0.01,0000,Weather View 32 v70,2013-03-07 07:00:00,
2013-03-07 02:05:00,33.9,30.5,29.86,ENE,68,4.0,24.0,87,0.01,,,0.02,0000,Weather View 32 v70,2013-03-07 07:05:00,
2013-03-07 02:10:00,34.1,30.6,29.86,NE,45,8.0,24.0,87,0.01,,,0.02,0000,Weather View 32 v70,2013-03-07 07:10:00,
2013-03-07 02:20:00,33.9,30.5,29.85,NNW,338,7.0,24.0,87,0.01,,,0.02,0000,Weather View 32 v70,2013-03-07 07:20:00,
2013-03-07 02:30:00,34.1,30.3,29.85,East,90,5.0,24.0,86,0.01,,,0.02,0000,Weather View 32 v70,2013-03-07 07:30:00,
2013-03-07 02:40:00,34.2,30.1,29.86,NNE,23,7.0,28.0,85,0.01,,,0.02,0000,Weather View 32 v70,2013-03-07 07:40:00,
2013-03-07 02:49:00,34.3,30.2,29.85,NE,45,2.0,28.0,85,0.01,,,0.02,0000,Weather View 32 v70,2013-03-07 07:49:00,
2013-03-07 02:55:00,34.2,30.1,29.85,North,0,9.0,28.0,85,0.01,,,0.02,0008,Weather View 32 v70,2013-03-07 07:55:00,
2013-03-07 03:05:00,34.2,30.1,29.85,NW,315,3.0,28.0,85,0.00,,,0.02,0000,Weather View 32 v70,2013-03-07 08:05:00,
2013-03-07 03:15:00,34.2,29.8,29.85,NNE,23,4.0,28.0,84,0.00,,,0.02,0008,Weather View 32 v70,2013-03-07 08:15:00,
2013-03-07 03:25:00,34.1,30.0,29.85,NE,45,4.0,28.0,85,0.00,,,0.02,0008,Weather View 32 v70,2013-03-07 08:25:00,
2013-03-07 03:30:00,33.9,29.9,29.85,NE,45,6.0,28.0,85,0.00,,,0.02,0000,Weather View 32 v70,2013-03-07 08:30:00,
2013-03-07 03:40:00,33.8,29.8,29.85,NNW,338,6.0,25.0,85,0.00,,,0.02,0000,Weather View 32 v70,2013-03-07 08:40:00,
2013-03-07 03:50:00,33.6,29.6,29.85,North,0,8.0,24.0,85,0.00,,,0.02,0000,Weather View 32 v70,2013-03-07 08:50:00,
2013-03-07 04:00:00,33.4,29.6,29.85,North,0,10.0,35.0,86,0.00,,,0.02,0000,Weather View 32 v70,2013-03-07 09:00:00,
2013-03-07 04:05:00,33.3,29.8,29.86,NNE,23,4.0,35.0,87,0.00,,,0.02,0000,Weather View 32 v70,2013-03-07 09:05:00,
2013-03-07 04:10:00,33.3,29.8,29.86,NNW,338,2.0,35.0,87,0.00,,,0.02,0000,Weather View 32 v70,2013-03-07 09:10:00,
2013-03-07 04:20:00,33.4,29.9,29.86,North,0,7.0,35.0,87,0.00,,,0.02,0000,Weather View 32 v70,2013-03-07 09:20:00,
2013-03-07 04:30:00,33.3,29.5,29.86,NE,45,6.0,35.0,86,0.00,,,0.02,0000,Weather View 32 v70,2013-03-07 09:30:00,
2013-03-07 04:40:00,32.9,29.8,29.86,NNW,338,4.0,35.0,88,0.00,,,0.02,0008,Weather View 32 v70,2013-03-07 09:40:00,
2013-03-07 04:45:00,32.9,29.8,29.86,NE,45,6.0,35.0,88,0.00,,,0.02,0008,Weather View 32 v70,2013-03-07 09:45:00,
2013-03-07 04:50:00,32.9,29.8,29.86,NNW,338,5.0,35.0,88,0.00,,,0.02,0000,Weather View 32 v70,2013-03-07 09:50:00,
2013-03-07 05:00:00,32.8,29.7,29.86,NE,45,7.0,24.0,88,0.00,,,0.02,0000,Weather View 32 v70,2013-03-07 10:00:00,
2013-03-07 05:05:00,32.8,29.7,29.86,NNE,23,11.0,69.0,88,0.00,,,0.02,0000,Weather View 32 v70,2013-03-07 10:05:00,
2013-03-07 05:15:00,32.6,29.4,29.87,NW,315,7.0,69.0,88,0.00,,,0.02,0000,Weather View 32 v70,2013-03-07 10:15:00,
2013-03-07 05:25:00,32.7,29.5,29.86,North,0,10.0,69.0,88,0.00,,,0.02,0000,Weather View 32 v70,2013-03-07 10:25:00,
2013-03-07 05:30:00,32.7,29.5,29.86,NNE,23,6.0,69.0,88,0.01,,,0.03,0000,Weather View 32 v70,2013-03-07 10:30:00,
2013-03-07 05:35:00,32.8,29.4,29.87,NNE,23,6.0,69.0,87,0.01,,,0.03,0000,Weather View 32 v70,2013-03-07 10:35:00,
2013-03-07 05:40:00,32.8,29.4,29.87,North,0,7.0,69.0,87,0.01,,,0.03,0016,Weather View 32 v70,2013-03-07 10:40:00,
2013-03-07 05:45:00,32.8,29.4,29.87,NNE,23,8.0,69.0,87,0.01,,,0.03,0000,Weather View 32 v70,2013-03-07 10:45:00,
2013-03-07 05:51:00,32.7,29.3,29.87,NNW,338,6.0,69.0,87,0.01,,,0.03,0000,Weather View 32 v70,2013-03-07 10:51:00,
2013-03-07 06:00:00,32.6,29.4,29.87,North,0,8.0,69.0,88,0.01,,,0.03,0000,Weather View 32 v70,2013-03-07 11:00:00,
2013-03-07 06:10:00,32.5,29.3,29.88,North,0,6.0,36.0,88,0.01,,,0.03,0000,Weather View 32 v70,2013-03-07 11:10:00,
2013-03-07 06:15:00,32.5,29.3,29.87,NNE,23,4.0,36.0,88,0.01,,,0.03,0008,Weather View 32 v70,2013-03-07 11:15:00,
2013-03-07 06:25:00,32.3,29.4,29.87,NNE,23,4.0,36.0,89,0.01,,,0.03,0000,Weather View 32 v70,2013-03-07 11:25:00,
2013-03-07 06:30:00,32.1,29.3,29.88,NNE,23,4.0,36.0,89,0.00,,,0.03,0000,Weather View 32 v70,2013-03-07 11:30:00,
2013-03-07 06:35:00,32.1,29.3,29.88,North,0,3.0,36.0,89,0.00,,,0.03,0000,Weather View 32 v70,2013-03-07 11:35:00,
2013-03-07 06:40:00,32.0,29.1,29.88,North,0,1.0,36.0,89,0.00,,,0.03,0000,Weather View 32 v70,2013-03-07 11:40:00,
2013-03-07 06:45:00,31.9,29.0,29.88,North,0,14.0,36.0,89,0.00,,,0.03,0008,Weather View 32 v70,2013-03-07 11:45:00,
2013-03-07 06:50:00,31.9,29.0,29.88,North,0,5.0,36.0,89,0.00,,,0.03,0000,Weather View 32 v70,2013-03-07 11:50:00,
2013-03-07 07:00:00,31.9,29.0,29.88,North,0,5.0,36.0,89,0.00,,,0.03,0008,Weather View 32 v70,2013-03-07 12:00:00,
2013-03-07 07:10:00,31.9,28.8,29.88,NNE,23,3.0,24.0,88,0.00,,,0.03,0008,Weather View 32 v70,2013-03-07 12:10:00,
2013-03-07 07:20:00,31.9,28.8,29.88,North,0,5.0,24.0,88,0.00,,,0.03,0024,Weather View 32 v70,2013-03-07 12:20:00,
2013-03-07 07:25:00,31.9,28.8,29.88,North,0,8.0,24.0,88,0.00,,,0.03,0040,Weather View 32 v70,2013-03-07 12:25:00,
2013-03-07 07:35:00,31.9,28.5,29.88,NNE,23,12.0,24.0,87,0.00,,,0.03,0016,Weather View 32 v70,2013-03-07 12:35:00,
2013-03-07 07:40:00,32.0,28.6,29.89,North,0,9.0,24.0,87,0.00,,,0.03,0016,Weather View 32 v70,2013-03-07 12:40:00,
2013-03-07 07:45:00,32.0,28.6,29.89,NNE,23,11.0,24.0,87,0.00,,,0.03,0040,Weather View 32 v70,2013-03-07 12:45:00,
2013-03-07 07:52:00,32.0,28.3,29.89,NNW,338,10.0,24.0,86,0.00,,,0.03,0048,Weather View 32 v70,2013-03-07 12:52:00,
2013-03-07 08:00:00,32.1,28.1,29.89,NE,45,6.0,32.0,85,0.00,,,0.03,0056,Weather View 32 v70,2013-03-07 13:00:00,
2013-03-07 08:05:00,32.1,28.1,29.89,North,0,14.0,32.0,85,0.00,,,0.03,0056,Weather View 32 v70,2013-03-07 13:05:00,
2013-03-07 08:15:00,32.3,28.2,29.89,North,0,6.0,32.0,85,0.00,,,0.03,0088,Weather View 32 v70,2013-03-07 13:15:00,
2013-03-07 08:20:00,32.3,28.0,29.88,NW,315,4.0,32.0,84,0.00,,,0.03,0112,Weather View 32 v70,2013-03-07 13:20:00,
2013-03-07 08:30:00,32.4,27.8,29.88,NNW,338,9.0,32.0,83,0.00,,,0.03,0096,Weather View 32 v70,2013-03-07 13:30:00,
2013-03-07 08:45:00,32.5,27.9,29.88,North,0,7.0,32.0,83,0.00,,,0.03,0072,Weather View 32 v70,2013-03-07 13:45:00,
2013-03-07 08:50:00,32.6,27.7,29.88,NNE,23,9.0,32.0,82,0.00,,,0.03,0120,Weather View 32 v70,2013-03-07 13:50:00,
2013-03-07 08:55:00,32.7,28.1,29.88,NE,45,5.0,27.0,83,0.00,,,0.03,0112,Weather View 32 v70,2013-03-07 13:55:00,
2013-03-07 09:10:00,33.3,28.1,29.88,NNE,23,3.0,27.0,81,0.00,,,0.03,0272,Weather View 32 v70,2013-03-07 14:10:00,
2013-03-07 09:15:00,33.6,28.4,29.88,NE,45,3.0,27.0,81,0.00,,,0.03,0376,Weather View 32 v70,2013-03-07 14:15:00,
2013-03-07 09:25:00,34.3,28.7,29.88,NE,45,6.0,27.0,80,0.00,,,0.03,0216,Weather View 32 v70,2013-03-07 14:25:00,
2013-03-07 09:30:00,34.3,28.7,29.88,NNE,23,7.0,27.0,80,0.00,,,0.03,0256,Weather View 32 v70,2013-03-07 14:30:00,
2013-03-07 09:40:00,34.6,29.1,29.88,NNE,23,4.0,27.0,80,0.00,,,0.03,0312,Weather View 32 v70,2013-03-07 14:40:00,
2013-03-07 09:50:00,35.4,29.5,29.87,North,0,9.0,27.0,79,0.00,,,0.03,0280,Weather View 32 v70,2013-03-07 14:50:00,
2013-03-07 10:00:00,34.7,29.2,29.88,NNE,23,7.0,27.0,80,0.00,,,0.03,0224,Weather View 32 v70,2013-03-07 15:00:00,
2013-03-07 10:05:00,35.1,29.5,29.88,North,0,4.0,27.0,80,0.00,,,0.03,0328,Weather View 32 v70,2013-03-07 15:05:00,
2013-03-07 10:15:00,36.3,30.4,29.88,North,0,6.0,25.0,79,0.00,,,0.03,0544,Weather View 32 v70,2013-03-07 15:15:00,
2013-03-07 10:25:00,36.6,30.7,29.88,NNW,338,4.0,25.0,79,0.00,,,0.03,0224,Weather View 32 v70,2013-03-07 15:25:00,
2013-03-07 10:30:00,36.3,30.1,29.88,NNE,23,3.0,25.0,78,0.00,,,0.03,0272,Weather View 32 v70,2013-03-07 15:30:00,
2013-03-07 10:35:00,36.1,29.9,29.88,NNE,23,3.0,25.0,78,0.00,,,0.03,0256,Weather View 32 v70,2013-03-07 15:35:00,
2013-03-07 10:40:00,36.5,30.6,29.88,NE,45,5.0,25.0,79,0.00,,,0.03,0272,Weather View 32 v70,2013-03-07 15:40:00,
2013-03-07 10:45:00,36.5,30.6,29.89,NNW,338,4.0,25.0,79,0.00,,,0.03,0280,Weather View 32 v70,2013-03-07 15:45:00,
2013-03-07 10:50:00,36.1,30.2,29.89,North,0,19.0,25.0,79,0.00,,,0.03,0256,Weather View 32 v70,2013-03-07 15:50:00,
2013-03-07 11:00:00,36.4,30.8,29.89,North,0,12.0,25.0,80,0.00,,,0.03,0336,Weather View 32 v70,2013-03-07 16:00:00,
2013-03-07 11:05:00,36.4,31.1,29.89,North,0,5.0,25.0,81,0.00,,,0.03,0360,Weather View 32 v70,2013-03-07 16:05:00,
2013-03-07 11:15:00,36.6,31.0,29.89,North,0,12.0,28.0,80,0.00,,,0.03,0304,Weather View 32 v70,2013-03-07 16:15:00,
2013-03-07 11:20:00,36.5,31.2,29.89,North,0,12.0,31.0,81,0.00,,,0.03,0304,Weather View 32 v70,2013-03-07 16:20:00,
2013-03-07 11:25:00,37.0,31.7,29.89,NNE,23,4.0,31.0,81,0.00,,,0.03,0288,Weather View 32 v70,2013-03-07 16:25:00,
2013-03-07 11:35:00,36.9,31.3,29.89,NNE,23,4.0,31.0,80,0.00,,,0.03,0384,Weather View 32 v70,2013-03-07 16:35:00,
2013-03-07 11:40:00,36.9,31.3,29.89,NNE,23,1.0,31.0,80,0.00,,,0.03,0264,Weather View 32 v70,2013-03-07 16:40:00,
2013-03-07 11:45:00,36.9,31.0,29.89,North,0,14.0,31.0,79,0.00,,,0.03,0312,Weather View 32 v70,2013-03-07 16:45:00,
2013-03-07 11:54:00,36.5,30.3,29.89,NNE,23,8.0,31.0,78,0.00,,,0.03,0264,Weather View 32 v70,2013-03-07 16:54:00,
2013-03-07 12:00:00,37.3,31.4,29.89,North,0,5.0,31.0,79,0.00,,,0.03,0320,Weather View 32 v70,2013-03-07 17:00:00,
2013-03-07 12:05:00,37.4,31.2,29.89,NNE,23,6.0,31.0,78,0.00,,,0.03,0264,Weather View 32 v70,2013-03-07 17:05:00,
2013-03-07 12:15:00,37.4,31.2,29.89,NNW,338,8.0,31.0,78,0.00,,,0.03,0288,Weather View 32 v70,2013-03-07 17:15:00,
2013-03-07 12:20:00,37.4,30.9,29.89,NNE,23,3.0,29.0,77,0.00,,,0.03,0264,Weather View 32 v70,2013-03-07 17:20:00,
2013-03-07 12:30:00,37.3,30.4,29.89,NE,45,9.0,36.0,76,0.00,,,0.03,0320,Weather View 32 v70,2013-03-07 17:30:00,
2013-03-07 12:35:00,37.7,30.8,29.89,North,0,6.0,36.0,76,0.00,,,0.03,0272,Weather View 32 v70,2013-03-07 17:35:00,
2013-03-07 12:40:00,37.2,30.6,29.89,East,90,4.0,36.0,77,0.00,,,0.03,0272,Weather View 32 v70,2013-03-07 17:40:00,
2013-03-07 12:50:00,37.2,30.6,29.89,NW,315,6.0,36.0,77,0.00,,,0.03,0192,Weather View 32 v70,2013-03-07 17:50:00,
2013-03-07 12:55:00,37.0,30.1,29.89,NE,45,13.0,36.0,76,0.00,,,0.03,0272,Weather View 32 v70,2013-03-07 17:55:00,
2013-03-07 13:05:00,37.4,30.9,29.89,NNE,23,4.0,36.0,77,0.00,,,0.03,0352,Weather View 32 v70,2013-03-07 18:05:00,
2013-03-07 13:10:00,37.8,30.9,29.88,NNW,338,11.0,36.0,76,0.00,,,0.03,0376,Weather View 32 v70,2013-03-07 18:10:00,
2013-03-07 13:15:00,38.2,31.3,29.87,North,0,13.0,36.0,76,0.00,,,0.03,0440,Weather View 32 v70,2013-03-07 18:15:00,
2013-03-07 13:25:00,39.0,30.4,29.88,NNE,23,6.0,27.0,71,0.00,,,0.03,0344,Weather View 32 v70,2013-03-07 18:25:00,
2013-03-07 13:30:00,38.6,30.3,29.88,NNE,23,6.0,27.0,72,0.00,,,0.03,0400,Weather View 32 v70,2013-03-07 18:30:00,
2013-03-07 13:45:00,37.9,30.3,29.89,North,0,2.0,27.0,74,0.00,,,0.03,0200,Weather View 32 v70,2013-03-07 18:45:00,
2013-03-07 13:55:00,37.4,29.9,29.89,North,0,2.0,27.0,74,0.00,,,0.03,0200,Weather View 32 v70,2013-03-07 18:55:00,
2013-03-07 14:00:00,37.1,29.6,29.89,NNE,23,7.0,28.0,74,0.00,,,0.03,0208,Weather View 32 v70,2013-03-07 19:00:00,
2013-03-07 14:10:00,37.4,29.5,29.89,North,0,6.0,28.0,73,0.00,,,0.03,0440,Weather View 32 v70,2013-03-07 19:10:00,
2013-03-07 14:15:00,37.9,30.0,29.88,North,0,11.0,28.0,73,0.00,,,0.03,0304,Weather View 32 v70,2013-03-07 19:15:00,
2013-03-07 14:25:00,37.5,29.7,29.88,ENE,68,4.0,28.0,73,0.00,,,0.03,0280,Weather View 32 v70,2013-03-07 19:25:00,
2013-03-07 14:30:00,37.5,29.7,29.89,NE,45,7.0,28.0,73,0.00,,,0.03,0328,Weather View 32 v70,2013-03-07 19:30:00,
2013-03-07 14:40:00,37.4,28.9,29.89,North,0,7.0,28.0,71,0.00,,,0.03,0192,Weather View 32 v70,2013-03-07 19:40:00,
2013-03-07 14:45:00,37.1,28.9,29.89,NNW,338,12.0,28.0,72,0.00,,,0.03,0200,Weather View 32 v70,2013-03-07 19:45:00,
2013-03-07 14:50:00,37.2,29.0,29.89,NNE,23,5.0,28.0,72,0.00,,,0.03,0240,Weather View 32 v70,2013-03-07 19:50:00,
2013-03-07 14:55:00,37.1,28.9,29.89,NE,45,7.0,28.0,72,0.00,,,0.03,0184,Weather View 32 v70,2013-03-07 19:55:00,
2013-03-07 15:00:00,36.9,29.0,29.89,North,0,4.0,26.0,73,0.00,,,0.03,0184,Weather View 32 v70,2013-03-07 20:00:00,
2013-03-07 15:10:00,36.9,28.3,29.89,NE,45,9.0,26.0,71,0.00,,,0.03,0208,Weather View 32 v70,2013-03-07 20:10:00,
2013-03-07 15:20:00,37.3,29.1,29.89,NNE,23,5.0,26.0,72,0.00,,,0.03,0248,Weather View 32 v70,2013-03-07 20:20:00,
2013-03-07 15:30:00,36.5,28.3,29.89,North,0,4.0,26.0,72,0.00,,,0.03,0136,Weather View 32 v70,2013-03-07 20:30:00,
2013-03-07 15:35:00,36.4,28.2,29.90,NNE,23,6.0,26.0,72,0.00,,,0.03,0112,Weather View 32 v70,2013-03-07 20:35:00,
2013-03-07 15:40:00,36.1,27.9,29.90,NNW,338,6.0,26.0,72,0.00,,,0.03,0088,Weather View 32 v70,2013-03-07 20:40:00,
2013-03-07 15:50:00,35.7,27.6,29.91,WNW,293,4.0,24.0,72,0.00,,,0.03,0048,Weather View 32 v70,2013-03-07 20:50:00,
2013-03-07 15:57:00,35.6,27.8,29.90,North,0,4.0,24.0,73,0.00,,,0.03,0072,Weather View 32 v70,2013-03-07 20:57:00,
2013-03-07 16:05:00,35.4,27.9,29.91,NNW,338,4.0,24.0,74,0.00,,,0.03,0056,Weather View 32 v70,2013-03-07 21:05:00,
2013-03-07 16:10:00,35.2,27.7,29.91,North,0,6.0,24.0,74,0.00,,,0.03,0064,Weather View 32 v70,2013-03-07 21:10:00,
2013-03-07 16:15:00,35.1,27.3,29.91,NE,45,6.0,24.0,73,0.00,,,0.03,0040,Weather View 32 v70,2013-03-07 21:15:00,
2013-03-07 16:25:00,35.0,27.2,29.91,North,0,5.0,24.0,73,0.00,,,0.03,0032,Weather View 32 v70,2013-03-07 21:25:00,
2013-03-07 16:30:00,35.0,27.5,29.92,NW,315,3.0,24.0,74,0.00,,,0.03,0024,Weather View 32 v70,2013-03-07 21:30:00,
2013-03-07 16:40:00,34.5,27.7,29.92,NNE,23,13.0,24.0,76,0.00,,,0.03,0024,Weather View 32 v70,2013-03-07 21:40:00,
2013-03-07 16:50:00,34.1,27.3,29.93,NNE,23,20.0,25.0,76,0.00,,,0.03,0016,Weather View 32 v70,2013-03-07 21:50:00,
2013-03-07 16:57:00,33.9,27.2,29.92,ENE,68,2.0,25.0,76,0.00,,,0.03,0016,Weather View 32 v70,2013-03-07 21:57:00,
2013-03-07 17:05:00,34.2,27.4,29.92,NNW,338,4.0,25.0,76,0.00,,,0.03,0008,Weather View 32 v70,2013-03-07 22:05:00,
2013-03-07 17:10:00,34.2,27.4,29.92,North,0,10.0,25.0,76,0.00,,,0.03,0016,Weather View 32 v70,2013-03-07 22:10:00,
2013-03-07 17:15:00,33.9,27.5,29.92,NNW,338,6.0,25.0,77,0.00,,,0.03,0008,Weather View 32 v70,2013-03-07 22:15:00,
2013-03-07 17:20:00,33.9,27.2,29.92,North,0,10.0,25.0,76,0.00,,,0.03,0000,Weather View 32 v70,2013-03-07 22:20:00,
2013-03-07 17:25:00,33.9,27.2,29.92,NNE,23,7.0,25.0,76,0.00,,,0.03,0000,Weather View 32 v70,2013-03-07 22:25:00,
2013-03-07 17:35:00,33.8,27.1,29.92,North,0,4.0,25.0,76,0.00,,,0.03,0008,Weather View 32 v70,2013-03-07 22:35:00,
2013-03-07 17:40:00,33.7,27.0,29.93,NNE,23,8.0,25.0,76,0.00,,,0.03,0008,Weather View 32 v70,2013-03-07 22:40:00,
2013-03-07 17:45:00,33.6,27.5,29.92,North,0,3.0,25.0,78,0.00,,,0.03,0000,Weather View 32 v70,2013-03-07 22:45:00,
2013-03-07 17:50:00,33.4,27.2,29.93,NNW,338,10.0,25.0,78,0.00,,,0.03,0000,Weather View 32 v70,2013-03-07 22:50:00,
2013-03-07 17:58:00,33.2,27.0,29.92,NNE,23,8.0,27.0,78,0.00,,,0.03,0000,Weather View 32 v70,2013-03-07 22:58:00,
2013-03-07 18:05:00,32.9,27.4,29.92,North,0,5.0,27.0,80,0.00,,,0.03,0008,Weather View 32 v70,2013-03-07 23:05:00,
2013-03-07 18:15:00,32.9,27.4,29.93,North,0,8.0,27.0,80,0.00,,,0.03,0000,Weather View 32 v70,2013-03-07 23:15:00,
2013-03-07 18:25:00,32.9,27.4,29.93,North,0,15.0,27.0,80,0.00,,,0.03,0000,Weather View 32 v70,2013-03-07 23:25:00,
2013-03-07 18:30:00,32.8,27.0,29.93,North,0,9.0,27.0,79,0.00,,,0.03,0000,Weather View 32 v70,2013-03-07 23:30:00,
2013-03-07 18:40:00,32.7,26.6,29.93,ENE,68,11.0,27.0,78,0.00,,,0.03,0000,Weather View 32 v70,2013-03-07 23:40:00,
2013-03-07 18:45:00,32.8,26.4,29.93,NNW,338,7.0,27.0,77,0.00,,,0.03,0000,Weather View 32 v70,2013-03-07 23:45:00,
2013-03-07 18:50:00,32.8,26.4,29.93,North,0,6.0,27.0,77,0.00,,,0.03,0008,Weather View 32 v70,2013-03-07 23:50:00,
2013-03-07 18:55:00,32.8,26.4,29.92,NNW,338,15.0,23.0,77,0.00,,,0.03,0000,Weather View 32 v70,2013-03-07 23:55:00,
2013-03-07 19:00:00,32.8,26.4,29.92,NNW,338,11.0,23.0,77,0.00,,,0.03,0000,Weather View 32 v70,2013-03-08 00:00:00,
2013-03-07 19:10:00,32.8,26.1,29.93,WNW,293,4.0,23.0,76,0.00,,,0.03,0016,Weather View 32 v70,2013-03-08 00:10:00,
2013-03-07 19:15:00,32.9,26.2,29.93,NE,45,2.0,24.0,76,0.00,,,0.03,0000,Weather View 32 v70,2013-03-08 00:15:00,
2013-03-07 19:20:00,32.9,26.2,29.93,NNE,23,3.0,24.0,76,0.00,,,0.03,0000,Weather View 32 v70,2013-03-08 00:20:00,
2013-03-07 19:25:00,32.9,26.2,29.93,North,0,4.0,24.0,76,0.00,,,0.03,0008,Weather View 32 v70,2013-03-08 00:25:00,
2013-03-07 19:35:00,32.8,25.8,29.94,North,0,8.0,24.0,75,0.00,,,0.03,0000,Weather View 32 v70,2013-03-08 00:35:00,
2013-03-07 19:45:00,32.8,25.8,29.93,North,0,7.0,24.0,75,0.00,,,0.03,0008,Weather View 32 v70,2013-03-08 00:45:00,
2013-03-07 19:55:00,32.8,26.1,29.94,NW,315,4.0,24.0,76,0.00,,,0.03,0000,Weather View 32 v70,2013-03-08 00:55:00,
2013-03-07 20:00:00,32.8,25.8,29.94,NNE,23,3.0,24.0,75,0.00,,,0.03,0000,Weather View 32 v70,2013-03-08 01:00:00,
2013-03-07 20:10:00,32.7,25.6,29.93,North,0,7.0,24.0,75,0.00,,,0.03,0000,Weather View 32 v70,2013-03-08 01:10:00,
2013-03-07 20:20:00,32.7,25.6,29.93,North,0,5.0,26.0,75,0.00,,,0.03,0008,Weather View 32 v70,2013-03-08 01:20:00,
2013-03-07 20:25:00,32.7,25.3,29.93,NNE,23,3.0,26.0,74,0.00,,,0.03,0000,Weather View 32 v70,2013-03-08 01:25:00,
2013-03-07 20:30:00,32.7,25.6,29.93,NNW,338,1.0,26.0,75,0.00,,,0.03,0000,Weather View 32 v70,2013-03-08 01:30:00,
2013-03-07 20:40:00,32.7,25.6,29.93,NNE,23,3.0,26.0,75,0.00,,,0.03,0000,Weather View 32 v70,2013-03-08 01:40:00,
2013-03-07 20:50:00,32.8,25.4,29.93,NNW,338,7.0,26.0,74,0.00,,,0.03,0008,Weather View 32 v70,2013-03-08 01:50:00,
2013-03-07 20:55:00,32.8,25.4,29.93,NE,45,3.0,26.0,74,0.00,,,0.03,0000,Weather View 32 v70,2013-03-08 01:55:00,
2013-03-07 21:05:00,32.7,25.3,29.93,NNW,338,1.0,26.0,74,0.00,,,0.03,0008,Weather View 32 v70,2013-03-08 02:05:00,
2013-03-07 21:10:00,32.7,25.3,29.93,NNW,338,14.0,26.0,74,0.00,,,0.03,0000,Weather View 32 v70,2013-03-08 02:10:00,
2013-03-07 21:20:00,32.7,25.3,29.92,North,0,9.0,22.0,74,0.00,,,0.03,0000,Weather View 32 v70,2013-03-08 02:20:00,
2013-03-07 21:30:00,32.7,25.3,29.91,North,0,11.0,23.0,74,0.00,,,0.03,0000,Weather View 32 v70,2013-03-08 02:30:00,
2013-03-07 21:40:00,32.7,25.3,29.92,NNW,338,5.0,23.0,74,0.00,,,0.03,0000,Weather View 32 v70,2013-03-08 02:40:00,
2013-03-07 21:45:00,32.7,25.0,29.91,NNE,23,7.0,23.0,73,0.00,,,0.03,0000,Weather View 32 v70,2013-03-08 02:45:00,
2013-03-07 21:50:00,32.7,25.3,29.91,WSW,248,3.0,23.0,74,0.00,,,0.03,0000,Weather View 32 v70,2013-03-08 02:50:00,
2013-03-07 22:00:00,32.7,25.3,29.91,NNE,23,12.0,23.0,74,0.00,,,0.03,0008,Weather View 32 v70,2013-03-08 03:00:00,
2013-03-07 22:10:00,32.7,25.3,29.91,North,0,4.0,23.0,74,0.00,,,0.03,0000,Weather View 32 v70,2013-03-08 03:10:00,
2013-03-07 22:20:00,32.7,25.3,29.91,North,0,2.0,23.0,74,0.00,,,0.03,0000,Weather View 32 v70,2013-03-08 03:20:00,
2013-03-07 22:25:00,32.6,25.2,29.91,North,0,8.0,23.0,74,0.00,,,0.03,0000,Weather View 32 v70,2013-03-08 03:25:00,
2013-03-07 22:30:00,32.6,25.5,29.91,North,0,7.0,23.0,75,0.00,,,0.03,0000,Weather View 32 v70,2013-03-08 03:30:00,
2013-03-07 22:40:00,32.5,25.4,29.90,North,0,4.0,23.0,75,0.00,,,0.03,0000,Weather View 32 v70,2013-03-08 03:40:00,
2013-03-07 22:45:00,32.5,25.7,29.91,NW,315,11.0,23.0,76,0.00,,,0.03,0000,Weather View 32 v70,2013-03-08 03:45:00,
2013-03-07 22:50:00,32.3,25.8,29.91,NNW,338,6.0,23.0,77,0.00,,,0.03,0000,Weather View 32 v70,2013-03-08 03:50:00,
2013-03-07 23:01:00,31.9,26.1,29.91,NNW,338,7.0,23.0,79,0.00,,,0.03,0000,Weather View 32 v70,2013-03-08 04:01:00,
2013-03-07 23:10:00,31.9,25.8,29.90,NNW,338,3.0,23.0,78,0.00,,,0.03,0000,Weather View 32 v70,2013-03-08 04:10:00,
2013-03-07 23:15:00,31.9,25.8,29.91,NW,315,8.0,21.0,78,0.00,,,0.03,0000,Weather View 32 v70,2013-03-08 04:15:00,
2013-03-07 23:20:00,31.8,26.3,29.91,NNE,23,5.0,21.0,80,0.00,,,0.03,0000,Weather View 32 v70,2013-03-08 04:20:00,
2013-03-07 23:25:00,31.7,26.2,29.91,NNW,338,4.0,21.0,80,0.00,,,0.03,0000,Weather View 32 v70,2013-03-08 04:25:00,
2013-03-07 23:35:00,31.7,26.2,29.90,NNW,338,6.0,28.0,80,0.00,,,0.03,0000,Weather View 32 v70,2013-03-08 04:35:00,
2013-03-07 23:40:00,31.8,26.3,29.90,ENE,68,2.0,28.0,80,0.00,,,0.03,0008,Weather View 32 v70,2013-03-08 04:40:00,
2013-03-07 23:45:00,31.8,26.0,29.90,NE,45,7.0,28.0,79,0.00,,,0.03,0000,Weather View 32 v70,2013-03-08 04:45:00,
2013-03-07 23:55:00,31.8,26.3,29.89,NNW,338,5.0,28.0,80,0.00,,,0.03,0000,Weather View 32 v70,2013-03-08 04:55:00,